This demonstration page uses our WeatherBlox Daily Observations layout. Learn more.

Left ArrowRight Arrow

39.92423, -83.80882

Hourly Observations for October 1, 2022

Temp ( °F °C ) Dew Point ( °F °C ) Humidity (%) Winds ( mph kmh ) Pressure ( in mb ) Visibility ( mi km ) Precip ( " mm )
12:56 am 00:56 Clear 51 10.6 40 4.4 65 65 NE 12 19 30.08 1019 10 16 0.00 0.00
1:56 am 01:56 Clear 51 10.6 40 4.4 65 65 NE 13 20 30.06 1018 10 16 0.00 0.00
2:56 am 02:56 Clear 50 10 41 5 71 71 NE 12 19 30.06 1018 10 16 0.00 0.00
3:56 am 03:56 Clear 50 10 42 5.6 74 74 NE 8 13 30.04 1017 10 16 0.00 0.00
4:56 am 04:56 Clear 51 10.6 42 5.6 71 71 NNE 9 15 30.03 1017 10 16 0.00 0.00
5:56 am 05:56 Clear 49 9.4 42 5.6 77 77 N 7 11 30.04 1017 10 16 0.00 0.00
6:56 am 06:56 Clear 47 8.3 47 8.3 100 100 N 7 11 30.05 1018 10 16 0.00 0.00
7:56 am 07:56 Sunny 49 9.4 45 7.2 86 86 NNW 8 13 30.06 1018 10 16 0.00 0.00
8:56 am 08:56 Sunny 51 10.6 46 7.8 83 83 N 8 13 30.06 1018 10 16 0.00 0.00
9:56 am 09:56 Sunny 56 13.3 44 6.7 64 64 NNE 10 17 30.06 1018 10 16 0.00 0.00
10:56 am 10:56 Sunny 59 15 43 6.1 55 55 NE 16 26 30.07 1018 10 16 0.00 0.00
11:56 am 11:56 Sunny 61 16.1 45 7.2 56 56 NNE 14 22 30.07 1018 10 16 0.00 0.00
12:56 pm 12:56 Sunny 63 17.2 46 7.8 54 54 NNE 14 22 30.08 1019 10 16 0.00 0.00
1:56 pm 13:56 Sunny 64 17.8 49 9.4 58 58 NNE 15 24 30.06 1018 10 16 0.00 0.00
2:56 pm 14:56 Mostly Sunny 63 17.2 53 11.7 70 70 N 14 22 30.05 1018 10 16 0.00 0.00
3:56 pm 15:56 Sunny 64 17.8 50 10 60 60 N 14 22 30.04 1017 10 16 0.00 0.00
4:56 pm 16:56 Sunny 62 16.7 46 7.8 56 56 N 15 24 30.05 1018 10 16 0.00 0.00
5:56 pm 17:56 Sunny 61 16.1 43 6.1 51 51 N 13 20 30.06 1018 10 16 0.00 0.00
6:56 pm 18:56 Sunny 60 15.6 43 6.1 53 53 N 13 20 30.07 1018 10 16 0.00 0.00
7:56 pm 19:56 Clear 58 14.4 46 7.8 65 65 N 10 17 30.09 1019 10 16 0.00 0.00
8:56 pm 20:56 Clear 58 14.4 45 7.2 62 62 N 10 17 30.09 1019 10 16 0.00 0.00
9:56 pm 21:56 Clear 58 14.4 44 6.7 60 60 N 10 17 30.09 1019 10 16 0.00 0.00
10:56 pm 22:56 Clear 57 13.9 44 6.7 62 62 N 14 22 30.09 1019 10 16 0.00 0.00
11:56 pm 23:56 Clear 57 13.9 46 7.8 67 67 NNE 9 15 30.09 1019 10 16 0.00 0.00

Powered by AerisWeather